User: anonymous   Login
Location: Pl�tzky
(52.0521°N, 11.8020°E)
Time: 11:27:43
(UTC+00:00)
Language:

ERBS - Orbit

View from above orbital plane
View from above orbital plane
View from above satellite
View from above satellite

Ground track
Ground track

The orbit data is extracted from the following two-line orbital elements,

1 15354U 84108B   20020.34719022  .00001882  00000-0  42263-4 0  9991
2 15354  57.0068   3.2467 0014893 109.3760 250.8909 15.48806369944728
Epoch (UTC): 20 January 2020 08:19:57
Eccentricity: 0.0014893
inclination: 57.0068°
perigee height: 410 km
apogee height: 430 km
right ascension of ascending node: 3.2467°
argument of perigee: 109.3760°
revolutions per day: 15.48806369
mean anomaly at epoch: 250.8909°
orbit number at epoch: 94472

The dashed part of the orbit path shows where the satellite is in the earth's shadow,  

DLR